TimeEDT,TemperatureF,Dew PointF,Humidity,Sea Level PressureIn,VisibilityMPH,Wind Direction,Wind SpeedMPH,Gust SpeedMPH,PrecipitationIn,Events,Conditions,WindDirDegrees,DateUTC
12:15 AM,39.2,37.4,93,29.57,9.0,West,11.5,-,0.02,Rain,Light Rain,260,2012-11-01 04:15:00
12:53 AM,39.9,37.0,89,29.59,9.0,West,6.9,-,0.03,Rain,Light Rain,260,2012-11-01 04:53:00
2:53 AM,39.9,37.9,93,29.59,10.0,West,8.1,-,0.02,Rain,Light Rain,270,2012-11-01 06:53:00
3:53 AM,39.9,37.9,93,29.59,10.0,West,8.1,-,0.02,Rain,Light Rain,260,2012-11-01 07:53:00
4:53 AM,39.9,37.9,93,29.59,8.0,West,10.4,-,0.03,,Overcast,260,2012-11-01 08:53:00
5:53 AM,39.9,37.9,93,29.60,4.0,West,8.1,-,0.02,,Overcast,260,2012-11-01 09:53:00
6:37 AM,39.2,37.4,93,29.59,10.0,West,10.4,-,0.01,Rain,Light Rain,270,2012-11-01 10:37:00
6:45 AM,39.2,37.4,93,29.59,8.0,West,10.4,-,0.01,,Overcast,270,2012-11-01 10:45:00
6:53 AM,39.9,37.0,89,29.61,6.0,West,9.2,-,0.02,,Overcast,270,2012-11-01 10:53:00
7:53 AM,39.0,37.0,93,29.62,4.0,West,10.4,-,0.02,Rain,Light Rain,280,2012-11-01 11:53:00
8:53 AM,39.0,37.0,93,29.64,4.0,West,9.2,-,0.01,Rain,Light Rain,270,2012-11-01 12:53:00
9:44 AM,39.2,37.4,93,29.63,2.5,West,12.7,-,0.02,,Overcast,270,2012-11-01 13:44:00
10:07 AM,39.2,37.4,93,29.63,5.0,West,10.4,-,N/A,,Overcast,270,2012-11-01 14:07:00
10:35 AM,39.2,37.4,93,29.64,10.0,West,10.4,18.4,0.01,Rain,Light Rain,270,2012-11-01 14:35:00
10:53 AM,39.9,37.0,89,29.67,10.0,West,12.7,-,0.02,Rain,Light Rain,260,2012-11-01 14:53:00
11:01 AM,39.2,37.4,93,29.64,10.0,West,10.4,-,0.00,Rain,Light Rain,270,2012-11-01 15:01:00
11:15 AM,39.2,37.4,93,29.64,10.0,West,8.1,20.7,0.00,,Overcast,260,2012-11-01 15:15:00
11:35 AM,41.0,37.4,87,29.64,9.0,West,9.2,-,0.01,,Overcast,270,2012-11-01 15:35:00
11:53 AM,39.9,37.9,93,29.67,4.0,West,9.2,-,0.01,Rain,Light Rain,270,2012-11-01 15:53:00
12:50 PM,41.0,37.4,87,29.64,8.0,West,13.8,19.6,0.02,Rain,Light Rain,260,2012-11-01 16:50:00
12:53 PM,41.0,37.9,89,29.66,8.0,West,11.5,19.6,0.02,Rain,Light Rain,270,2012-11-01 16:53:00
1:13 PM,41.0,37.4,87,29.64,3.0,West,9.2,-,0.01,Rain,Light Rain,270,2012-11-01 17:13:00
1:38 PM,41.0,37.4,87,29.64,7.0,West,9.2,-,0.01,Rain,Light Rain,260,2012-11-01 17:38:00
1:53 PM,41.0,39.0,93,29.66,7.0,West,12.7,18.4,0.02,Rain,Light Rain,270,2012-11-01 17:53:00
2:16 PM,41.0,39.2,93,29.64,9.0,West,12.7,-,0.00,Rain,Light Rain,260,2012-11-01 18:16:00
2:27 PM,41.0,37.4,87,29.64,6.0,West,11.5,-,0.01,Rain,Light Rain,260,2012-11-01 18:27:00
2:53 PM,41.0,37.9,89,29.66,5.0,West,13.8,-,0.01,Rain,Light Rain,260,2012-11-01 18:53:00
3:53 PM,39.9,37.9,93,29.67,7.0,West,12.7,18.4,0.02,Rain,Light Rain,280,2012-11-01 19:53:00
4:00 PM,39.2,37.4,93,29.64,7.0,West,11.5,-,0.00,Rain,Light Rain,270,2012-11-01 20:00:00
4:14 PM,41.0,37.4,87,29.64,10.0,West,10.4,17.3,0.00,Rain,Light Rain,270,2012-11-01 20:14:00
4:21 PM,41.0,37.4,87,29.64,10.0,West,12.7,20.7,0.00,,Overcast,270,2012-11-01 20:21:00
4:53 PM,39.9,37.0,89,29.68,8.0,West,11.5,18.4,0.01,Rain,Light Rain,270,2012-11-01 20:53:00
5:53 PM,39.0,37.0,93,29.70,10.0,West,11.5,20.7,0.01,Rain,Light Rain,270,2012-11-01 21:53:00
7:53 PM,37.9,35.1,89,29.73,6.0,WSW,12.7,20.7,0.01,Rain,Light Rain,250,2012-11-01 23:53:00
8:21 PM,37.4,35.6,93,29.71,10.0,WSW,6.9,-,0.01,Rain,Light Rain,240,2012-11-02 00:21:00
8:53 PM,37.9,35.1,89,29.74,10.0,WSW,5.8,-,0.01,,Overcast,240,2012-11-02 00:53:00
9:19 PM,37.4,35.6,93,29.71,10.0,WSW,6.9,-,0.01,,Overcast,240,2012-11-02 01:19:00
9:53 PM,37.9,35.1,89,29.74,10.0,SW,5.8,-,0.01,,Mostly Cloudy,230,2012-11-02 01:53:00
10:53 PM,37.0,34.0,89,29.74,10.0,SW,6.9,-,0.01,,Overcast,220,2012-11-02 02:53:00
11:53 PM,37.0,34.0,89,29.73,10.0,SW,6.9,-,0.01,,Overcast,220,2012-11-02 03:53:00